{"data":{"norad_id":55167,"epoch":"2026-09-19T23:51:27.233280Z","epoch_age_seconds":65622,"freshness":"FRESH","line1":"1 55167U 23004AD  26262.99406520  .00000135  00000+0  31371-3 0  9992","line2":"2 55167  87.9202 347.0478 0001523  96.4425 263.6880 13.17649023180062","mean_motion":13.17649023,"eccentricity":0.0001523,"inclination_deg":87.9202,"raan_deg":347.0478,"arg_perigee_deg":96.4425,"mean_anomaly_deg":263.688,"bstar":0.00031371,"rev_number":18006,"period_min":109.28555137706,"perigee_km":1192.5599789698,"apogee_km":1194.8663645321,"semimajor_km":7571.8501717509,"source":"CELESTRAK","updated_at":"2026-09-20T09:00:44.755929Z"}}